DELTA 1 DEB, 7134

Orbit data source: Space-Track

DELTA 1 DEB, 7134 is space debris in SSO originally from a launch on Tue, 06 Nov 1973 UTC launched from the Air Force Western Test Range (AFWTR). Debris objects in space refer to the collection of defunct objects orbiting the Earth. Examples of debris include non-operational satellites, rocket bodies, and fragments generated from explosions, collisions, or faulty payload assembly.

Loading next visibility...
Identifier
7134, 1973-086CY
Orbit
SSO
Country
Flag of USUS
Related business
Manufacturer
Unknown
Mission
Spacecraft
Bus & Motor
Unknown
Mass
Unknown
Launch date (UTC)
1973-11-06 (52 years ago)
Launch vehicle
Unknown
Launch site
Air Force Western Test Range (AFWTR)
Object type
Payload
Rocket body
Debris
Shape & HBR
Unknown shape, 0.2 m
Radar Cross Section
Small (<0.1 m²)

Expand to show TLE details & history
Last TLE update: 11 hours ago

TLE from 11 hours ago
0 DELTA 1 DEB
1 07134U 73086CY  25307.82553383  .00000064  00000-0  69092-3 0  9992
2 07134 101.8461  78.6743 0010023 324.7894 192.1541 12.52910045371841
Epoch: 2025-11-03T19:48Z
TLE epoch observation values (Epoch: 2025-11-03T19:48:46.122Z)
Latitude
22.57924°
Longitude
-76.86006°
Altitude
1,462.458 km
Speed
7.13 km/s
True Right ascension
17h 34m 36s
True Declination
22° 28' 07"
Sunlit
Object was in daylight at epoch
Visualization orbit readout
Latitude
Unknown
Longitude
Unknown
Altitude
Unknown
Speed
Unknown
Apparent Right ascension
Unknown
Apparent Declination
Unknown
Sunlit
N/A
Visualization observer readout
Local Sidereal Time
02:47:21
Azimuth
Unknown
Elevation
Unknown
Doppler factor
Unknown
Orbital elements
Apogee altitude
1,457.741 km
Perigee altitude
1,442.049 km
Semi-major axis
7,828.032 km
Eccentricity
0.001
Inclination
101.8461°
RAAN
78.6743°
Arg. of periapsis
324.7894°
True anomaly
192.12995°
Mean anomaly
192.1541°
Eccentric anomaly
192.14202°
Mean motion
3.13375 °/min
Orbital period
114.88 mins
BSTAR
0.00069092
Loading maneuver chart data...
Computing Atmospheric mass density...
Loading historical data...
Loading historical data...
Loading historical data...
Loading historical data...
Loading historical data...
Loading historical data...
Loading historical data...

Documentation

Showing up to 5 results
|